Weather History for West Plains, MO

Change the Weather History Date:

Monday, January 6, 2014

  Actual Average Record
Temperature  
Mean Temperature 1 °F 34 °F  
Max Temperature 6 °F 44 °F 70 °F (2008)
Min Temperature -4 °F 23 °F -4 °F (2014)
Degree Days  
Heating Degree Days 64 31  
Month to date heating degree days 263 186  
Since 1 July heating degree days 2020 1931  
Cooling Degree Days 0 0  
Month to date cooling degree days 0 0  
Year to date cooling degree days 0 0  
Moisture  
Dew Point -13 °F    
Average Humidity 53    
Maximum Humidity 65    
Minimum Humidity 41    
Precipitation  
Precipitation 0.00 in 0.07 in 0.36 in (2002)
Month to date precipitation 0.08 0.41  
Year to date precipitation 0.08 0.41  
Sea Level Pressure  
Sea Level Pressure 30.53 in    
Wind  
Wind Speed 12 mph (WNW)    
Max Wind Speed 21 mph    
Max Gust Speed 28 mph    
Visibility 10 miles    
Events      
T = Trace of Precipitation, MM = Missing Value Source: NWS Daily Summary

Daily Weather History Graph

Daily Weather History Graph

Search for Another Location

Airport:

Trip Planner

Search our weather history database for the weather conditions in past years. The results will help you decide how hot, cold, wet, or windy it might be!

Date:

Astronomy

Jan. 06, 2014 Rise Set
Actual Time 7:21 AM CST 5:06 PM CST
Civil Twilight 6:52 AM CST 5:34 PM CST
Nautical Twilight 6:20 AM CST 6:07 PM CST
Astronomical Twilight 5:48 AM CST 6:38 PM CST
Moon 10:46 AM CST (1/6) 11:29 PM CST (1/6)
Length of Visible Light 10h 42m
Length of Day
9h 45m
Waxing Crescent, 35% of the Moon is Illuminated
Jan 6
Waxing Crescent
Jan 7
First Quarter
Jan 15
Full
Jan 23
Last Quarter
Jan 30
New

Hourly Weather History & Observations

Time (CST) Temp. Windchill Dew Point Humidity Pressure Visibility Wind Dir Wind Speed Gust Speed Precip Events Conditions
12:53 AM 3.9 °F -13.7 °F -9.9 °F 53% 30.42 in 10.0 mi NW 13.8 mph 23.0 mph N/A   Clear
1:53 AM 3.0 °F -14.1 °F -11.9 °F 50% 30.44 in 10.0 mi NW 12.7 mph - N/A   Clear
2:53 AM 1.9 °F -14.7 °F -11.9 °F 52% 30.47 in 10.0 mi NW 11.5 mph 20.7 mph N/A   Clear
3:53 AM 1.0 °F -15.8 °F -11.9 °F 55% 30.47 in 10.0 mi WNW 11.5 mph 19.6 mph N/A   Clear
4:53 AM -0.9 °F -15.3 °F -11.9 °F 60% 30.48 in 10.0 mi WNW 8.1 mph - N/A   Clear
5:53 AM -2.0 °F -16.6 °F -11.9 °F 63% 30.49 in 10.0 mi WNW 8.1 mph - N/A   Clear
6:53 AM -2.9 °F -23.1 °F -11.9 °F 65% 30.52 in 10.0 mi NW 15.0 mph 25.3 mph N/A   Clear
7:53 AM -4.0 °F -24.5 °F -15.0 °F 59% 30.55 in 10.0 mi NW 15.0 mph 23.0 mph N/A   Clear
8:53 AM -2.9 °F -25.0 °F -17.0 °F 51% 30.58 in 10.0 mi NW 18.4 mph 26.5 mph N/A   Clear
9:53 AM -0.9 °F -18.3 °F -16.1 °F 49% 30.60 in 10.0 mi NW 11.5 mph - N/A   Clear
10:53 AM 1.0 °F -17.3 °F -16.1 °F 45% 30.57 in 10.0 mi WNW 13.8 mph - N/A   Clear
11:53 AM 1.9 °F -19.2 °F -15.0 °F 45% 30.54 in 10.0 mi West 19.6 mph 24.2 mph N/A   Clear
12:53 PM 3.0 °F -16.7 °F -14.1 °F 45% 30.53 in 10.0 mi West 17.3 mph 24.2 mph N/A   Clear
1:53 PM 5.0 °F -14.2 °F -13.0 °F 43% 30.51 in 10.0 mi WNW 17.3 mph 24.2 mph N/A   Clear
2:53 PM 6.1 °F -10.9 °F -13.0 °F 41% 30.52 in 10.0 mi West 13.8 mph 18.4 mph N/A   Clear
3:53 PM 6.1 °F -10.9 °F -13.0 °F 41% 30.52 in 10.0 mi West 13.8 mph 20.7 mph N/A   Clear
4:53 PM 3.9 °F -14.3 °F -14.1 °F 43% 30.53 in 10.0 mi WNW 15.0 mph 19.6 mph N/A   Clear
5:53 PM 1.0 °F -12.9 °F -13.0 °F 52% 30.55 in 10.0 mi WNW 8.1 mph - N/A   Clear
6:53 PM -0.0 °F -15.3 °F -13.0 °F 54% 30.57 in 10.0 mi WNW 9.2 mph - N/A   Clear
7:53 PM -0.9 °F -12.7 °F -13.0 °F 57% 30.58 in 10.0 mi West 5.8 mph - N/A   Clear
8:53 PM -2.0 °F -13.9 °F -13.0 °F 60% 30.58 in 10.0 mi West 5.8 mph - N/A   Clear
9:53 PM -2.0 °F -13.9 °F -11.9 °F 63% 30.58 in 10.0 mi West 5.8 mph - N/A   Clear
10:53 PM -2.9 °F -16.5 °F -11.9 °F 65% 30.56 in 10.0 mi WSW 6.9 mph - N/A   Clear
11:53 PM -2.9 °F -16.5 °F -11.9 °F 65% 30.56 in 10.0 mi SW 6.9 mph - N/A   Clear